Tracking 27380 objects as of 6-Jun-2023
HD Live streaming from Space Station
objects crossing your sky now

THOR ABLESTAR DEB

Track THOR ABLESTAR DEB now!
10-day predictions


NORAD ID: 653
Int'l Code: 1961-015HE
Perigee: 902.6 km
Apogee: 1,128.8 km
Inclination: 67.5 °
Period: 105.3 minutes
Semi major axis: 7386 km
RCS: 0.0608 m2 (small)
Launch date: June 29, 1961
Source: United States (US)
Launch site: AIR FORCE EASTERN TEST RANGE (AFETR)

Note: This is SATELLITE DEBRIS
Your satellite tracking list
Your tracking list is empty




NASA's NSSDC Master Catalog

Two Line Element Set (TLE):
1 00653U 61015HE  23157.18491100  .00000726  00000-0  86713-3 0  9992
2 00653  67.4508 185.9077 0153127 141.2433 291.3947 13.67496150 66357
Source of the keplerian elements: AFSPC